Regional Weather Roundup
Issued by NWS Green Bay, WI

Home | Current Version | Previous Version | Graphics & Text | Print | Product List | Glossary Off
Versions: 1 2 3 4 5 6 7 8 9 10 11 12 13 14 15 16 17 18 19 20 21 22 23 24 25 26 27 28 29 30 31 32 33 34 35 36 37 38 39 40 41 42 43 44 45 46 47 48 49 50

000
ASUS43 KGRB 172259
RWRGRB

NORTH-CENTRAL AND NORTHEAST WISCONSIN REGIONAL WEATHER ROUNDUP
NATIONAL WEATHER SERVICE GREEN BAY WI
600 PM CDT THU APR 17 2014

WIZ005-009-010>012-018-019-180000-
NORTH CENTRAL WISCONSIN

CITY           SKY/WX    TMP DP  RH WIND       PRES   REMARKS
IRONWOOD       CLOUDY    34  27  75 NW9       30.21R
MANITOWISH WTR NOT AVBL
ARBOR VITAE    NOT AVBL
EAGLE RIVER    NOT AVBL
LAND O LAKES   NOT AVBL
RHINELANDER    CLOUDY    34  29  82 W8        30.22R
PHILLIPS       NOT AVBL
ANTIGO         NOT AVBL
TOMAHAWK       NOT AVBL
MERRILL        NOT AVBL
$$

WIZ013-073-180000-
NORTHEAST WISCONSIN

CITY           SKY/WX    TMP DP  RH WIND       PRES   REMARKS
IRON MOUNTAIN  CLOUDY    38  32  79 W6        30.19R
MARINETTE      PTSUNNY   45  34  65 N5        30.20R
$$

WIZ017-030-035>037-045-180000-
CENTRAL WISCONSIN

CITY           SKY/WX    TMP DP  RH WIND       PRES   REMARKS
MEDFORD        NOT AVBL
WAUSAU         CLOUDY    37  31  78 W13       30.22R
MOSINEE        CLOUDY    37  36  93 W13       30.24R
MARSHFIELD     CLOUDY    38  30  73 NW12      30.24R
WISC RAPIDS    CLOUDY    40  32  73 W9        30.26R
STEVENS POINT  NOT AVBL
WAUPACA        NOT AVBL
SHAWANO        NOT AVBL
CLINTONVILLE   NOT AVBL
$$

WIZ038-039-048-051-180000-
FOX VALLEY

CITY           SKY/WX    TMP DP  RH WIND       PRES   REMARKS
NWS GREEN BAY  PTSUNNY   49  38  65 NW7       30.20R
APPLETON       PTSUNNY   52  36  54 W13       30.20R
OSHKOSH        PTSUNNY   52  37  56 NW10      30.20R
FOND DU LAC    CLOUDY    54  37  52 W14       30.19R
$$

WIZ022-050-052-180000-
EAST CENTRAL WISCONSIN

CITY           SKY/WX    TMP DP  RH WIND       PRES   REMARKS
STURGEON BAY   CLOUDY    45  34  65 N7        30.22R
MANITOWOC      NOT AVBL
SHEBOYGAN      CLOUDY    53  39  59 W8        30.18S
$$

LMZ563-521-522-541>543-180000-
LAKESHORE

STATION/POSITION TIME  TEMP    WIND        PRES    VSBY  WAVE
                       AIR SEA DIR/SP/G                  HT/PER
                 (UTC) (F)     (DEG/KT/KT) (MB)    (MI)  (FT/S)
SHEBOYGAN LKSHOR 2200   50     170/ 11/ 12 1022.7R
KEWAUNEE LKSHORE 2200   48      20/  5/ 11 1023.0R
NORTHPORT PIER   2200   37      CALM  /  1 1023.0R
SISTER BAY LKSHO 2200   42        CALM       N/A
MENOMINEE LKSHOR 2200   41     320/  7/ 10 1023.2R
$$



USA.gov is the U.S. government's official web portal to all federal, state and local government web resources and services.